[[[{"header":{"parameterUnit":"kt","parameterCategory":2,"dx":1,"dy":1,"la1":30.253999710083008,"la2":30.299108505249023,"lo1":-89.0895004272461,"lo2":-89.04439544677734,"nx":28,"ny":28,"refTime":"2022-10-21T21:00:00:Z","depth":"0","parameterNumber":2,"parameterNumberName":"U-component_of_CURRENTS"},"data":[0.3434,0.3452,0.3508,0.3452,0.3471,0.3403,0.3402,0.3422,0.3522,0.3602,0.3714,0.3898,0.4247,0.4449,0.4374,0.4309,0.3968,0.3809,0.3777,0.4241,0.4286,0.433,0.4118,0.3892,0.3891,0.2911,0.2903,0.2898,0.3507,0.3564,0.3622,0.3675,0.3664,0.3754,0.3823,0.3811,0.3859,0.4066,0.4205,0.445,0.4613,0.4845,0.5012,0.4878,0.4676,0.4733,0.4342,0.4271,0.4978,0.4783,0.4696,0.4696,0.4696,0.4696,0.4696,0.4697,0.3644,0.367,0.3751,0.3817,0.3867,0.3904,0.3915,0.4037,0.415,0.4305,0.4558,0.4705,0.5031,0.541,0.5491,0.5469,0.5422,0.5307,0.5241,0.505,0.4745,0.5343,0.5602,0.5604,0.5606,0.5608,0.5609,0,0.3735,0.3796,0.3842,0.3927,0.3979,0.4045,0.4136,0.4209,0.4398,0.4554,0.4743,0.4901,0.5294,0.5423,0.5728,0.5821,0.5587,0.5866,0.5685,0.5085,0.4684,0.4448,0.5113,0.5577,0.5579,0.5581,0.5582,0.5583,0.3793,0.385,0.3965,0.3996,0.4011,0.4117,0.4164,0.432,0.4412,0.471,0.4784,0.5098,0.5235,0.5656,0.5785,0.6004,0.5753,0.5918,0.5677,0.5359,0.5163,0.4893,0.4737,0.5607,0.5604,0.5602,0.56,0,0.3811,0.386,0.3941,0.403,0.4059,0.4128,0.4219,0.4329,0.4499,0.467,0.4747,0.4984,0.5234,0.5403,0.5705,0.5699,0.5722,0.5912,0.5603,0.5499,0.5214,0.508,0.5259,0.5116,0.6025,0.6025,0.6025,0,0.3761,0.3842,0.3849,0.3869,0.4034,0.4002,0.4198,0.4272,0.444,0.4562,0.4699,0.484,0.5026,0.5233,0.5282,0.5464,0.5623,0.5422,0.5356,0.5135,0.5091,0.499,0.4846,0.563,0.5627,0.5624,0.5622,0,0.3569,0.3636,0.3772,0.377,0.3766,0.3878,0.3926,0.4048,0.4141,0.4384,0.4458,0.4761,0.4845,0.5054,0.5062,0.4921,0.5418,0.5201,0.5193,0.5175,0.5133,0.5091,0.5334,0.5618,0.5617,0.5616,0.5615,0,0.3379,0.3369,0.3507,0.3537,0.3557,0.3601,0.3787,0.3863,0.4029,0.4073,0.4269,0.4253,0.4548,0.4336,0.4721,0.4516,0.4579,0.4594,0.4605,0.4556,0.4227,0.4407,0.469,0.4469,0.4528,0.452,0.4513,0,0.3247,0.3255,0.3151,0.3262,0.3284,0.3221,0.3339,0.3391,0.3436,0.3584,0.3678,0.3818,0.3702,0.3747,0.3936,0.3979,0.4205,0.3917,0.4216,0.4228,0.4146,0.4438,0.424,0.4565,0.4409,0.4419,0.4427,0,0.3052,0.288,0.2895,0.2915,0.2828,0.2795,0.2914,0.3041,0.3177,0.3137,0.3402,0.3501,0.3486,0.3575,0.3532,0.3707,0.4011,0.3582,0.3589,0.3777,0.4431,0.4299,0.4355,0.3934,0.3948,0.3959,0.4345,0,0.2853,0.2811,0.2781,0.2707,0.2669,0.2688,0.2628,0.2636,0.2636,0.2678,0.2863,0.2855,0.304,0.2992,0.2987,0.3318,0.3246,0.3151,0.3193,0.3343,0.3461,0.3527,0.273,0.2728,0.2726,0.2725,0,0,0.2813,0.2726,0.2509,0.2468,0.2496,0.2347,0.2426,0.2402,0.2377,0.2487,0.2374,0.2585,0.2597,0.2887,0.2908,0.2812,0.2891,0.2913,0.3183,0.3232,0.3279,0.3407,0.3471,0.2722,0.2722,0.2721,0.2721,0,0.2732,0.2555,0.2514,0.2447,0.2345,0.2326,0.2311,0.2249,0.229,0.2321,0.2373,0.2455,0.2475,0.2628,0.27,0.2762,0.285,0.2694,0.295,0.3157,0.3208,0.3255,0.339,0.3449,0.2717,0.2717,0.2717,0,0.2693,0.256,0.2518,0.2347,0.2314,0.2321,0.2269,0.2218,0.2295,0.2267,0.2373,0.2366,0.2446,0.2528,0.2562,0.2556,0.2836,0.2644,0.2651,0.2837,0.3057,0.3112,0.316,0.2564,0.2564,0.2564,0,0,0.2657,0.2539,0.2429,0.2338,0.2301,0.2271,0.2248,0.2242,0.2243,0.2256,0.2298,0.2358,0.2439,0.2482,0.2515,0.2564,0.27,0.2631,0.2638,0.2644,0.2829,0.3051,0.31,0.2564,0.2564,0.2564,0,0,0.2683,0.2514,0.2487,0.2356,0.2304,0.2259,0.2244,0.2244,0.2266,0.229,0.2356,0.2373,0.2442,0.2448,0.2439,0.2572,0.2533,0.2535,0.2608,0.2616,0.2623,0.285,0.2512,0,0,0,0,0,0.2607,0.2518,0.2493,0.2461,0.2321,0.2247,0.2241,0.2254,0.229,0.2275,0.2328,0.238,0.2468,0.246,0.2469,0.2564,0.2564,0.2564,0.2564,0.2666,0.2675,0.2682,0,0,0,0,0,0,0.2594,0.2551,0.2497,0.2432,0.2402,0.225,0.2305,0.2308,0.2293,0.2302,0.2365,0.2381,0.2429,0.246,0.2467,0.2558,0.251,0.2564,0.2564,0.2564,0.2669,0.2676,0.2682,0,0,0,0,0,0.2584,0.2549,0.2304,0.2438,0.2412,0.24,0.2309,0.2312,0.2315,0.2359,0.2375,0.2327,0.2426,0.2438,0.2465,0.2555,0.2505,0.2508,0.2564,0.2564,0.2564,0.2672,0,0,0,0,0,0,0.2576,0.2582,0.2301,0.2297,0.2469,0.2412,0.2397,0.2316,0.2378,0.2387,0.2326,0.2333,0.2422,0.2433,0.2442,0.2555,0.2502,0.2504,0.2506,0.2564,0.2564,0.2564,0,0,0,0,0,0,0.26,0.2577,0.23,0.2337,0.2338,0.2424,0.241,0.2422,0.2382,0.2345,0.2349,0.2329,0.244,0.2428,0.2436,0.2453,0.2499,0.2501,0.2503,0.2504,0.2564,0.2564,0,0,0,0,0,0,0.2592,0.2572,0.234,0.234,0.2341,0.23,0.2444,0.2323,0.2334,0.2346,0.2343,0.2347,0.2436,0.2443,0.2431,0.2445,0.2451,0.2499,0.2501,0.2502,0.2502,0,0,0,0,0,0,0,0.2586,0.2695,0.2317,0.2342,0.2343,0.2254,0.2254,0.2254,0.2335,0.2338,0.2342,0.2345,0.2486,0.2488,0.2491,0.2438,0,0,0.2499,0.25,0,0,0,0,0,0,0,0,0.2706,0.2698,0.2317,0.2315,0.2314,0.2254,0.2254,0.2254,0.2336,0.2338,0.2341,0.2344,0.2487,0.2489,0.2491,0,0,0,0,0,0,0,0,0,0,0,0,0,0,0,0.2317,0.2315,0,0.2254,0.2254,0.2254,0.2336,0.2338,0.234,0.2343,0.2487,0.2489,0.249,0,0,0,0,0,0,0,0,0,0,0,0,0,0,0,0,0,0,0,0,0,0,0,0,0,0,0,0,0,0,0,0,0,0,0,0,0,0,0,0,0,0,0,0,0,0,0,0,0,0,0,0,0,0,0,0,0,0,0,0,0,0,0,0,0,0,0,0,0]}],[{"header":{"parameterUnit":"kt","parameterCategory":2,"dx":1,"dy":1,"la1":30.253999710083008,"la2":30.299108505249023,"lo1":-89.0895004272461,"lo2":-89.04439544677734,"nx":28,"ny":28,"refTime":"2022-10-21T21:00:00:Z","depth":"0","parameterNumber":3,"parameterNumberName":"V-component_of_CURRENTS"},"data":[0.1775,0.1885,0.1975,0.2249,0.2413,0.272,0.2923,0.3292,0.3573,0.3943,0.4004,0.4035,0.3263,0.1192,-0.018,-0.0464,-0.0851,-0.09,-0.1084,-0.0728,-0.0669,-0.0612,-0.0683,-0.1191,-0.1192,-0.1682,-0.1688,-0.1693,0.1771,0.1865,0.2001,0.2219,0.239,0.2496,0.2806,0.3053,0.3395,0.3663,0.3885,0.3597,0.2868,0.2095,0.0908,0.0319,0.0167,-0.003,-0.0142,-0.0186,0.0471,0.0439,0.0161,0.0161,0.0162,0.0162,0.0162,0.0163,0.1803,0.1857,0.2023,0.2173,0.2326,0.2541,0.2715,0.2961,0.3216,0.3538,0.3543,0.3678,0.3105,0.2382,0.1939,0.1014,0.1106,0.0722,0.0612,0.0602,0.047,0.1218,0.1116,0.1117,0.1117,0.1117,0.1117,0,0.185,0.1914,0.2031,0.2198,0.2329,0.2499,0.2691,0.2809,0.3046,0.3193,0.338,0.3436,0.3072,0.2717,0.2141,0.1811,0.1277,0.1402,0.1031,0.0766,0.0681,0.0442,0.12,0.1307,0.1308,0.1309,0.131,0.1311,0.1839,0.1958,0.2154,0.2236,0.2294,0.2479,0.2595,0.2768,0.2902,0.3092,0.3156,0.3099,0.3108,0.2674,0.2217,0.1803,0.1496,0.1451,0.1378,0.1,0.0724,0.0662,0.0564,0.1327,0.1325,0.1323,0.1322,0,0.1815,0.193,0.212,0.2309,0.2368,0.2486,0.2647,0.2786,0.2898,0.3027,0.3057,0.3073,0.2921,0.2648,0.2325,0.2068,0.1605,0.1616,0.1592,0.1439,0.0903,0.0764,0.0692,0.0575,0.1407,0.1405,0.1403,0,0.1738,0.1897,0.2004,0.209,0.232,0.2394,0.261,0.2676,0.2802,0.2908,0.2887,0.2933,0.2702,0.2547,0.2251,0.1926,0.1999,0.1593,0.1434,0.1401,0.138,0.1026,0.0872,0.1659,0.1659,0.166,0.166,0,0.1489,0.1701,0.1917,0.1977,0.2107,0.2242,0.2327,0.2433,0.2513,0.2634,0.2644,0.2712,0.2627,0.2471,0.2087,0.202,0.187,0.1684,0.1416,0.14,0.1343,0.1314,0.1182,0.1661,0.1661,0.1662,0.1662,0,0.1297,0.1382,0.1626,0.1798,0.1845,0.1943,0.216,0.2256,0.2341,0.2332,0.2405,0.2281,0.2345,0.2077,0.197,0.1932,0.1698,0.1499,0.1485,0.1386,0.1048,0.0995,0.1142,0.0774,0.1166,0.1163,0.1161,0,0.1094,0.1253,0.1219,0.1444,0.1549,0.1517,0.1661,0.1719,0.1719,0.1805,0.1755,0.1798,0.1636,0.1607,0.1614,0.1393,0.1405,0.1366,0.1104,0.11,0.1041,0.1208,0.1178,0.1109,0.1132,0.1135,0.1137,0,0.0875,0.0875,0.0897,0.0997,0.1015,0.1024,0.1169,0.129,0.141,0.1324,0.1517,0.1496,0.1395,0.1416,0.1287,0.1281,0.133,0.1077,0.1069,0.1079,0.1263,0.1168,0.1177,0.1179,0.1186,0.1191,0.1114,0,0.074,0.0768,0.0773,0.0817,0.0814,0.087,0.0833,0.0845,0.0819,0.0827,0.092,0.0799,0.087,0.0798,0.0744,0.091,0.0793,0.0659,0.0629,0.0756,0.0683,0.0702,0.0414,0.041,0.0407,0.0404,0,0,0.063,0.0639,0.0466,0.0512,0.0566,0.0413,0.0533,0.0506,0.0459,0.0534,0.0405,0.0461,0.0387,0.0577,0.0607,0.0487,0.0432,0.0576,0.0652,0.068,0.0705,0.0648,0.067,0.0398,0.0397,0.0396,0.0395,0,0.0582,0.0461,0.047,0.0447,0.0392,0.0373,0.0368,0.0305,0.0323,0.0345,0.0314,0.031,0.0268,0.0327,0.0347,0.0426,0.0353,0.0362,0.0642,0.062,0.0652,0.068,0.0631,0.0653,0.0387,0.0387,0.0388,0,0.0533,0.0465,0.0432,0.0332,0.0301,0.0344,0.0241,0.0202,0.029,0.0161,0.0249,0.017,0.0152,0.0194,0.0199,0.017,0.0281,0.0215,0.0229,0.0381,0.0359,0.0395,0.0426,0.0038,0.0038,0.0038,0,0,0.0525,0.0464,0.0377,0.0324,0.0298,0.0251,0.0224,0.0205,0.0173,0.0167,0.0144,0.0131,0.0146,0.0149,0.0123,0.0138,0.0124,0.0182,0.0198,0.0213,0.0369,0.0354,0.0386,0.0037,0.0037,0.0037,0,0,0.0531,0.0419,0.0402,0.0321,0.0276,0.0212,0.0195,0.0176,0.0158,0.017,0.0141,0.0134,0.0153,0.0102,0.0096,0.0151,0.0069,0.0068,0.0232,0.0251,0.0267,0.0476,0.0078,0,0,0,0,0,0.0479,0.0427,0.0412,0.0389,0.0277,0.0214,0.0203,0.0176,0.0183,0.0174,0.0164,0.0147,0.0106,0.01,0.0088,0.0173,0.0027,0.0029,0.003,0.024,0.0261,0.0279,0,0,0,0,0,0,0.0469,0.0441,0.0413,0.0342,0.0316,0.0215,0.0219,0.0211,0.0184,0.0186,0.0151,0.0146,0.0129,0.0103,0.0093,0.0176,0.0081,0.0028,0.0029,0.003,0.0247,0.0264,0.0279,0,0,0,0,0,0.0462,0.0439,0.0261,0.0344,0.0321,0.0269,0.0221,0.0215,0.0204,0.0157,0.0152,0.0185,0.0128,0.0119,0.0097,0.0183,0.0088,0.0084,0.0029,0.003,0.0031,0.0256,0,0,0,0,0,0,0.0456,0.0449,0.0257,0.0249,0.0358,0.0276,0.0261,0.0218,0.0178,0.0171,0.019,0.0191,0.0128,0.0121,0.0114,0.0191,0.0093,0.009,0.0087,0.0029,0.003,0.0031,0,0,0,0,0,0,0.046,0.0443,0.0253,0.0272,0.0267,0.0282,0.0269,0.0227,0.0178,0.0215,0.0214,0.0191,0.0138,0.0122,0.0116,0.0052,0.0097,0.0094,0.0091,0.009,0.003,0.0031,0,0,0,0,0,0,0.0453,0.0438,0.0275,0.0271,0.0267,0.0189,0.0247,0.0138,0.0178,0.0219,0.0182,0.0183,0.0139,0.0133,0.0118,0.0056,0.0053,0.0097,0.0095,0.0093,0.0092,0,0,0,0,0,0,0,0.0447,0.0548,0.0291,0.027,0.0266,0.018,0.0179,0.0178,0.0179,0.018,0.0181,0.0183,0.0117,0.0113,0.0109,0.0059,0,0,0.0098,0.0096,0,0,0,0,0,0,0,0,0.0554,0.0549,0.0291,0.0289,0.0287,0.018,0.0179,0.0178,0.0179,0.018,0.0181,0.0182,0.0116,0.0113,0.011,0,0,0,0,0,0,0,0,0,0,0,0,0,0,0,0.029,0.0289,0,0.018,0.0179,0.0178,0.0179,0.018,0.0181,0.0182,0.0115,0.0113,0.011,0,0,0,0,0,0,0,0,0,0,0,0,0,0,0,0,0,0,0,0,0,0,0,0,0,0,0,0,0,0,0,0,0,0,0,0,0,0,0,0,0,0,0,0,0,0,0,0,0,0,0,0,0,0,0,0,0,0,0,0,0,0,0,0,0,0,0,0,0]}]],[[{"header":{"parameterUnit":"kt","parameterCategory":2,"dx":1,"dy":1,"la1":30.253999710083008,"la2":30.299108505249023,"lo1":-89.0895004272461,"lo2":-89.04439544677734,"nx":28,"ny":28,"refTime":"2022-10-21T21:00:00:Z","depth":"2","parameterNumber":2,"parameterNumberName":"U-component_of_CURRENTS"},"data":[0.2127,0.2141,0.2143,0.2238,0.2368,0.2502,0.2612,0.2593,0.2623,0.2471,0.2458,0.254,0.2723,0.2297,0.2211,0.2088,0.2308,0.1992,0.2754,0.2882,0.294,0.3071,0.2896,0,0,0,0,0,0.2111,0.2158,0.2187,0.2337,0.2397,0.2551,0.2695,0.2739,0.2885,0.2942,0.3059,0.279,0.2711,0.2807,0.2588,0.2512,0.2523,0.2429,0.2476,0.2544,0.2605,0.2443,0.1936,0.1933,0.193,0.1928,0,0,0.2161,0.2153,0.2348,0.2436,0.2548,0.265,0.2726,0.2904,0.3033,0.3228,0.3395,0.3487,0.3524,0.3324,0.3196,0.3118,0.3373,0.3248,0.3276,0.3311,0.3182,0.3009,0.2871,0.2875,0.2878,0.2881,0.2884,0,0.23,0.2414,0.2484,0.2626,0.2742,0.2827,0.3015,0.3056,0.3374,0.3508,0.371,0.3825,0.3937,0.38,0.3757,0.3689,0.3778,0.3642,0.4184,0.3595,0.3427,0.3306,0.3309,0.3397,0.3404,0.3409,0.3412,0.3415,0.2573,0.2591,0.2812,0.287,0.2964,0.3089,0.318,0.3414,0.3498,0.3801,0.3838,0.4057,0.4144,0.4193,0.4132,0.4114,0.4273,0.3806,0.3761,0.4103,0.3982,0.3959,0.3936,0.3489,0.348,0.3472,0.3466,0,0.2737,0.2903,0.2934,0.3156,0.323,0.3258,0.3452,0.3509,0.3722,0.3835,0.3916,0.4126,0.4259,0.4336,0.4469,0.4379,0.438,0.4339,0.3961,0.3822,0.3988,0.3957,0.4203,0.4196,0.419,0.4185,0.4181,0,0.3003,0.3034,0.3223,0.3209,0.3329,0.341,0.3534,0.3631,0.3792,0.3888,0.4061,0.4111,0.43,0.4354,0.4348,0.4316,0.4485,0.4272,0.4174,0.3915,0.386,0.429,0.4255,0.4587,0.4587,0.4587,0.4586,0,0.3006,0.3135,0.3245,0.3259,0.3315,0.344,0.3526,0.3657,0.3712,0.3907,0.3933,0.4159,0.4197,0.4311,0.4264,0.4225,0.4405,0.432,0.4135,0.4108,0.3918,0.386,0.4586,0.4585,0.4585,0.4585,0.4585,0,0.3046,0.3058,0.3183,0.3211,0.3229,0.3307,0.3437,0.3525,0.3678,0.3716,0.3878,0.3855,0.4083,0.3937,0.4161,0.4049,0.4053,0.4037,0.4036,0.3842,0.3566,0.3401,0.3481,0.3851,0.3846,0.3842,0.3838,0,0.3014,0.3027,0.3019,0.3095,0.3079,0.3094,0.3223,0.3296,0.3327,0.3403,0.3514,0.3606,0.3571,0.3563,0.3705,0.3687,0.3827,0.3692,0.3744,0.3747,0.355,0.3689,0.3401,0.3429,0.3781,0.3787,0.3791,0,0.2875,0.2796,0.2812,0.2807,0.2802,0.2751,0.2908,0.3033,0.311,0.312,0.3294,0.3433,0.3387,0.3465,0.3427,0.3548,0.3708,0.3434,0.3437,0.3491,0.3887,0.3631,0.3643,0.3657,0.3667,0.3674,0.3746,0,0.2783,0.2755,0.2728,0.2687,0.2671,0.2685,0.2663,0.2671,0.2679,0.2734,0.2883,0.287,0.3012,0.2995,0.3007,0.3255,0.3157,0.3102,0.3128,0.3233,0.3223,0.3259,0.2808,0.2806,0.2805,0.2804,0,0,0.2752,0.2687,0.2513,0.2487,0.252,0.24,0.2475,0.2468,0.2458,0.2556,0.2458,0.264,0.2667,0.2918,0.2944,0.2869,0.2878,0.2955,0.312,0.3154,0.3187,0.3189,0.3225,0.2801,0.2801,0.28,0.28,0,0.2701,0.2556,0.2522,0.2474,0.2389,0.2384,0.237,0.2326,0.237,0.2406,0.2464,0.2531,0.2568,0.2706,0.2776,0.2827,0.2861,0.2779,0.2982,0.3099,0.3135,0.3168,0.3177,0.321,0.2796,0.2796,0.2797,0,0.2682,0.2575,0.2541,0.2399,0.2372,0.2389,0.2344,0.2299,0.238,0.2361,0.247,0.2467,0.2548,0.2628,0.2661,0.2655,0.2845,0.2737,0.2743,0.2886,0.3012,0.305,0.3084,0.2666,0.2666,0.2667,0,0,0.2658,0.2563,0.2476,0.2394,0.2363,0.2344,0.2325,0.2327,0.2334,0.235,0.2398,0.246,0.2541,0.2583,0.262,0.2665,0.273,0.2726,0.2732,0.2738,0.288,0.3008,0.3042,0.2667,0.2667,0.2667,0,0,0.2683,0.2552,0.2533,0.2421,0.2377,0.2345,0.2329,0.2337,0.2364,0.2387,0.2459,0.2478,0.2547,0.2552,0.2547,0.2673,0.2639,0.264,0.2709,0.2716,0.2722,0.2897,0.2624,0,0,0,0,0,0.2632,0.2553,0.2535,0.2508,0.2395,0.2332,0.2327,0.2348,0.2386,0.2372,0.2429,0.2483,0.2575,0.2571,0.258,0.2669,0.267,0.2669,0.2669,0.2765,0.2773,0.2779,0,0,0,0,0,0,0.2621,0.2585,0.2538,0.249,0.2465,0.2334,0.2395,0.24,0.2389,0.2399,0.2468,0.2485,0.2537,0.257,0.2578,0.2663,0.2622,0.267,0.2669,0.2669,0.2767,0.2774,0.2779,0,0,0,0,0,0.2612,0.2583,0.2383,0.2494,0.2473,0.2474,0.2399,0.2404,0.241,0.2461,0.2478,0.2428,0.2533,0.2547,0.2575,0.266,0.2617,0.2619,0.2669,0.2669,0.2669,0.2771,0,0,0,0,0,0,0.2606,0.2614,0.2382,0.2378,0.2526,0.2485,0.2474,0.2407,0.2477,0.2487,0.2425,0.2433,0.253,0.2541,0.255,0.2659,0.2613,0.2616,0.2617,0.2669,0.2669,0.2669,0,0,0,0,0,0,0.263,0.261,0.238,0.2418,0.242,0.2495,0.2485,0.2499,0.2481,0.2441,0.2446,0.2428,0.2544,0.2537,0.2544,0.2564,0.261,0.2613,0.2614,0.2615,0.2669,0.2669,0,0,0,0,0,0,0.2623,0.2607,0.242,0.2421,0.2423,0.2396,0.2516,0.2421,0.2438,0.2441,0.2447,0.2451,0.2541,0.2548,0.254,0.2555,0.2562,0.261,0.2612,0.2613,0.2614,0,0,0,0,0,0,0,0.2618,0.2705,0.239,0.2423,0.2425,0.2346,0.2346,0.2347,0.2439,0.2442,0.2446,0.2449,0.2596,0.2599,0.2602,0.2548,0,0,0.261,0.2611,0,0,0,0,0,0,0,0,0.2714,0.2707,0.239,0.2389,0.2388,0.2346,0.2346,0.2347,0.2439,0.2442,0.2445,0.2448,0.2597,0.2599,0.2601,0,0,0,0,0,0,0,0,0,0,0,0,0,0,0,0.239,0.2389,0,0.2346,0.2346,0.2347,0.244,0.2442,0.2444,0.2446,0.2597,0.2599,0.2601,0,0,0,0,0,0,0,0,0,0,0,0,0,0,0,0,0,0,0,0,0,0,0,0,0,0,0,0,0,0,0,0,0,0,0,0,0,0,0,0,0,0,0,0,0,0,0,0,0,0,0,0,0,0,0,0,0,0,0,0,0,0,0,0,0,0,0,0,0]}],[{"header":{"parameterUnit":"kt","parameterCategory":2,"dx":1,"dy":1,"la1":30.253999710083008,"la2":30.299108505249023,"lo1":-89.0895004272461,"lo2":-89.04439544677734,"nx":28,"ny":28,"refTime":"2022-10-21T21:00:00:Z","depth":"2","parameterNumber":3,"parameterNumberName":"V-component_of_CURRENTS"},"data":[-0.0402,-0.0313,-0.0265,-0.0015,0.0123,0.0352,0.0499,0.0671,0.0857,0.1091,0.1207,0.1194,0.0681,0.038,-0.0096,-0.0361,-0.045,-0.0409,-0.0659,-0.0367,-0.0365,-0.0746,-0.0493,0,0,0,0,0,-0.0443,-0.0371,-0.0292,-0.014,-0.0,0.0055,0.0245,0.0384,0.0642,0.0859,0.1002,0.0779,0.048,0.0058,-0.04,-0.0774,-0.0706,-0.0929,-0.0731,-0.0736,-0.074,-0.0575,-0.0694,-0.0694,-0.0694,-0.0694,0,0,-0.0478,-0.0441,-0.0328,-0.0238,-0.0133,0.001,0.0115,0.0273,0.0416,0.0681,0.0627,0.0719,0.0382,-0.0114,-0.0506,-0.0869,-0.0901,-0.1021,-0.1014,-0.101,-0.0868,-0.0791,-0.1058,-0.106,-0.1062,-0.1064,-0.1065,0,-0.0452,-0.0404,-0.0348,-0.0246,-0.0158,-0.0076,0.0061,0.0096,0.03,0.0389,0.0513,0.0503,0.0187,-0.0051,-0.0543,-0.0769,-0.0914,-0.1015,-0.1133,-0.0618,-0.0534,-0.0612,-0.0595,-0.0775,-0.0775,-0.0776,-0.0776,-0.0776,-0.0345,-0.0358,-0.0236,-0.0183,-0.0096,-0.0052,0.0024,0.0133,0.0222,0.0339,0.0386,0.0267,0.0298,-0.0236,-0.0469,-0.0848,-0.0903,-0.1013,-0.0858,-0.086,-0.0948,-0.092,-0.0894,-0.0783,-0.0782,-0.0781,-0.0781,0,-0.0257,-0.0159,-0.0145,-0.0015,0.0017,0.0019,0.0162,0.018,0.0268,0.0351,0.0382,0.0421,0.0262,0.0065,-0.0294,-0.0418,-0.0738,-0.0858,-0.0623,-0.0703,-0.0886,-0.0864,-0.1152,-0.1157,-0.116,-0.1163,-0.1166,0,-0.004,-0.0045,0.0096,0.0089,0.0112,0.0209,0.023,0.0317,0.0373,0.044,0.0513,0.0499,0.038,0.019,-0.0002,-0.0312,-0.034,-0.0501,-0.062,-0.0434,-0.0424,-0.0477,-0.0468,-0.0524,-0.052,-0.0518,-0.0515,0,0.0043,0.0153,0.0192,0.0224,0.0308,0.0366,0.0422,0.0492,0.0514,0.0551,0.0538,0.0509,0.044,0.0255,0.0071,0.0111,-0.0285,-0.0306,-0.0521,-0.053,-0.0493,-0.0493,-0.0512,-0.0511,-0.051,-0.0509,-0.0508,0,0.0216,0.0248,0.0307,0.0352,0.0357,0.0407,0.0443,0.0498,0.0537,0.0551,0.0591,0.0533,0.0522,0.0472,0.025,0.0334,0.0143,-0.0019,-0.004,-0.0136,-0.0264,-0.0396,-0.0421,-0.0345,-0.0342,-0.0339,-0.0336,0,0.0273,0.0299,0.0375,0.0403,0.0386,0.046,0.0525,0.0558,0.0568,0.0524,0.0534,0.049,0.0543,0.0482,0.0441,0.0241,0.0149,0.0305,-0.0173,-0.0187,-0.0213,-0.0236,-0.0055,-0.0374,-0.0297,-0.0301,-0.0304,0,0.0248,0.0312,0.0313,0.0315,0.0386,0.0333,0.0455,0.0485,0.0475,0.0481,0.0467,0.0519,0.0453,0.0445,0.0391,0.0311,0.0198,0.0207,0.0196,0.0061,-0.0147,-0.0183,-0.0215,0.011,0.0108,0.0106,-0.0274,0,0.0317,0.032,0.0314,0.0325,0.0325,0.0327,0.0325,0.0328,0.0322,0.0317,0.0319,0.0255,0.0234,0.023,0.0226,0.0216,0.0118,0.0062,0.0004,0.0042,-0.0136,-0.0159,0.0071,0.0068,0.0066,0.0064,0,0,0.0311,0.0289,0.0224,0.0232,0.0243,0.0181,0.0206,0.0202,0.0152,0.0169,0.013,0.0092,0.0064,0.0102,0.015,0.0095,-0.0028,0.0113,0.0034,0.0032,0.0029,-0.0137,-0.0156,0.006,0.0059,0.0058,0.0057,0,0.0307,0.0255,0.0238,0.0224,0.0177,0.0158,0.0152,0.0096,0.0102,0.0099,0.0073,0.0056,0.0013,0.0017,0.0014,0.006,-0.0073,0.0042,0.0156,0.0017,0.0018,0.0018,-0.0143,-0.0159,0.0051,0.0052,0.0052,0,0.031,0.0266,0.0243,0.0168,0.0138,0.014,0.0081,0.0045,0.0077,-0.0009,0.0018,-0.0029,-0.0065,-0.0054,-0.0061,-0.0089,-0.0139,-0.0081,-0.0071,-0.0043,-0.019,-0.0188,-0.0186,-0.0214,-0.0214,-0.0215,0,0,0.0312,0.0277,0.0205,0.0161,0.014,0.0093,0.0065,0.0046,0.001,0.0001,-0.0034,-0.0061,-0.0068,-0.0082,-0.0114,-0.0126,-0.0231,-0.0106,-0.0094,-0.0083,-0.0049,-0.0192,-0.0189,-0.0215,-0.0215,-0.0215,0,0,0.0313,0.0236,0.0223,0.0159,0.0117,0.0052,0.0034,0.0014,-0.001,-0.0,-0.0046,-0.0057,-0.0059,-0.0111,-0.0114,-0.0108,-0.0169,-0.017,-0.0046,-0.0032,-0.002,0.0037,-0.0149,0,0,0,0,0,0.0283,0.0244,0.0233,0.0213,0.0116,0.0057,0.0046,0.0013,0.0015,0.0007,-0.0013,-0.0043,-0.011,-0.0113,-0.0129,-0.0082,-0.0225,-0.0223,-0.0221,-0.0067,-0.0051,-0.0037,0,0,0,0,0,0,0.0275,0.0252,0.0233,0.0165,0.0142,0.0058,0.0054,0.0045,0.0016,0.0016,-0.0036,-0.0045,-0.0074,-0.0109,-0.0122,-0.0076,-0.0145,-0.0224,-0.0223,-0.0221,-0.0061,-0.0048,-0.0037,0,0,0,0,0,0.0268,0.025,0.0102,0.0166,0.0146,0.0089,0.0056,0.0048,0.0035,-0.0028,-0.0036,0.0011,-0.0073,-0.0086,-0.0117,-0.0068,-0.0137,-0.0141,-0.0223,-0.0222,-0.0221,-0.0055,0,0,0,0,0,0,0.0263,0.0254,0.0097,0.009,0.0176,0.0094,0.0081,0.0051,-0.0007,-0.0017,0.0017,0.0017,-0.0074,-0.0084,-0.0093,-0.006,-0.013,-0.0134,-0.0137,-0.0222,-0.0221,-0.0221,0,0,0,0,0,0,0.0263,0.0249,0.0094,0.0109,0.0103,0.0099,0.0087,0.0036,-0.0007,0.0043,0.004,0.0018,-0.0065,-0.0082,-0.009,-0.0169,-0.0124,-0.0129,-0.0132,-0.0134,-0.0221,-0.0221,0,0,0,0,0,0,0.0256,0.0244,0.0111,0.0107,0.0102,0.0021,0.0054,-0.0043,0.0003,0.0047,0.0005,0.0006,-0.0064,-0.0072,-0.0087,-0.0162,-0.0167,-0.0124,-0.0127,-0.013,-0.0131,0,0,0,0,0,0,0,0.0251,0.0342,0.0134,0.0105,0.0101,0.0019,0.0018,0.0016,0.0003,0.0004,0.0005,0.0006,-0.0099,-0.0103,-0.0108,-0.0157,0,0,-0.0124,-0.0126,0,0,0,0,0,0,0,0,0.0347,0.0343,0.0133,0.0131,0.0129,0.0019,0.0018,0.0017,0.0003,0.0004,0.0005,0.0006,-0.01,-0.0104,-0.0108,0,0,0,0,0,0,0,0,0,0,0,0,0,0,0,0.0133,0.0131,0,0.0019,0.0018,0.0017,0.0004,0.0004,0.0005,0.0005,-0.0101,-0.0104,-0.0108,0,0,0,0,0,0,0,0,0,0,0,0,0,0,0,0,0,0,0,0,0,0,0,0,0,0,0,0,0,0,0,0,0,0,0,0,0,0,0,0,0,0,0,0,0,0,0,0,0,0,0,0,0,0,0,0,0,0,0,0,0,0,0,0,0,0,0,0,0]}]],[[{"header":{"parameterUnit":"kt","parameterCategory":2,"dx":1,"dy":1,"la1":30.253999710083008,"la2":30.299108505249023,"lo1":-89.0895004272461,"lo2":-89.04439544677734,"nx":28,"ny":28,"refTime":"2022-10-21T21:00:00:Z","depth":"4","parameterNumber":2,"parameterNumberName":"U-component_of_CURRENTS"},"data":[0.0642,0.0666,0.0646,0.0681,0.0715,0.0771,0.083,0.0943,0.0948,0.1167,0.1189,0.1369,0.1421,0.1548,0.1527,0.1546,0.1581,0.172,0.1716,0.1847,0.1863,0.1878,0.1724,0,0,0,0,0,0.064,0.0633,0.0674,0.073,0.0802,0.0855,0.0961,0.1057,0.1266,0.1265,0.1433,0.1447,0.1532,0.1561,0.1546,0.1651,0.176,0.1622,0.1725,0.1857,0.1875,0.172,0,0,0,0,0,0,0.0659,0.0651,0.0718,0.079,0.0889,0.0919,0.1014,0.1133,0.1268,0.1555,0.1514,0.1675,0.1815,0.1804,0.1836,0.1878,0.1778,0.1743,0.1766,0.1784,0.1642,0.1624,0.1496,0,0,0,0,0,0.0682,0.0724,0.0773,0.086,0.0963,0.1059,0.1215,0.1288,0.1529,0.1719,0.1773,0.1843,0.1885,0.19,0.2023,0.1985,0.2149,0.2113,0.2118,0.194,0.1953,0.1973,0.1982,0.1943,0.1945,0.1947,0.1948,0,0.0744,0.0771,0.0905,0.0961,0.1041,0.1202,0.1313,0.1554,0.1639,0.1893,0.1885,0.2037,0.2086,0.2078,0.213,0.2157,0.2108,0.2162,0.1972,0.1981,0.1997,0.2001,0.2005,0.1962,0.1961,0.196,0.1959,0,0.0777,0.0873,0.0954,0.1115,0.1185,0.1256,0.1525,0.1615,0.1823,0.195,0.1997,0.2141,0.2154,0.2274,0.2304,0.2232,0.2202,0.2167,0.2379,0.2403,0.2032,0.203,0.1986,0.198,0.1976,0.1972,0.1969,0,0.0866,0.0943,0.1096,0.1125,0.1222,0.1404,0.1545,0.1664,0.1866,0.1953,0.2081,0.2099,0.2188,0.2254,0.2236,0.2175,0.2268,0.2054,0.2062,0.219,0.219,0.2194,0.2193,0.2188,0.2186,0.2185,0.2185,0,0.0907,0.1071,0.1137,0.1194,0.139,0.1468,0.1593,0.1787,0.1893,0.2034,0.2112,0.2128,0.2186,0.215,0.2207,0.2163,0.2247,0.2205,0.2077,0.2073,0.2188,0.2189,0.2183,0.2183,0.2183,0.2182,0.2182,0,0.0995,0.1075,0.1169,0.1342,0.1389,0.1487,0.1686,0.1792,0.1951,0.2022,0.2064,0.2117,0.2142,0.2104,0.2129,0.2106,0.2119,0.2144,0.2149,0.1992,0.2017,0.2204,0.2257,0.2256,0.2256,0.2256,0.2255,0,0.0995,0.1105,0.1199,0.1341,0.142,0.1582,0.1682,0.1822,0.1935,0.2027,0.2052,0.2127,0.2095,0.2124,0.2089,0.216,0.2145,0.2116,0.2174,0.2177,0.1991,0.1992,0.2107,0.225,0.2251,0.2251,0.2252,0,0.0985,0.1152,0.1182,0.1256,0.147,0.1542,0.1687,0.1806,0.1886,0.1974,0.2026,0.2089,0.2099,0.2123,0.215,0.213,0.2149,0.213,0.213,0.2149,0.217,0.2011,0.2,0.2112,0.2111,0.211,0.2248,0,0.1048,0.1127,0.1182,0.1323,0.143,0.1528,0.164,0.176,0.1859,0.1899,0.2005,0.2063,0.2115,0.2146,0.2162,0.2174,0.22,0.2183,0.2123,0.2155,0.2224,0.2227,0.2197,0.2197,0.2197,0.2198,0,0,0.1031,0.1066,0.1167,0.1252,0.1326,0.148,0.1553,0.1638,0.1797,0.184,0.1897,0.2007,0.2079,0.2121,0.2155,0.2195,0.2205,0.2131,0.2166,0.2163,0.216,0.2223,0.2226,0.2198,0.2198,0.2198,0.2198,0,0.1007,0.1073,0.1126,0.1211,0.1368,0.1422,0.1494,0.1605,0.1705,0.1811,0.1889,0.1985,0.2064,0.21,0.2119,0.2192,0.2169,0.2219,0.2177,0.2168,0.2165,0.2162,0.2224,0.2226,0.2199,0.2198,0.2198,0,0.0984,0.1043,0.1059,0.1158,0.1245,0.1319,0.1379,0.1524,0.1601,0.1665,0.1829,0.1893,0.1948,0.2021,0.2083,0.2058,0.2122,0.2113,0.2115,0.2086,0.2074,0.2072,0.207,0.2081,0.2081,0.208,0,0,0.0992,0.1041,0.1098,0.1148,0.1202,0.1303,0.1375,0.1475,0.1588,0.1678,0.1761,0.1855,0.1918,0.1977,0.2041,0.2076,0.2077,0.2094,0.2099,0.2103,0.2077,0.2067,0.2067,0.2077,0.2076,0.2076,0,0,0.0992,0.1041,0.1082,0.1114,0.122,0.1278,0.138,0.1456,0.1619,0.1685,0.1741,0.1777,0.1927,0.1942,0.1899,0.2002,0.1987,0.1996,0.196,0.1967,0.1973,0.1925,0.1874,0,0,0,0,0,0.0992,0.1007,0.1042,0.1055,0.1129,0.1218,0.124,0.1397,0.1475,0.158,0.1701,0.1704,0.1945,0.1907,0.1914,0.192,0.2034,0.2042,0.2049,0.2015,0.2023,0.2029,0,0,0,0,0,0,0.0996,0.1003,0.1043,0.1078,0.1099,0.1214,0.127,0.131,0.1476,0.1512,0.1671,0.17,0.1721,0.1903,0.1909,0.1914,0.1872,0.2037,0.2044,0.2049,0.2018,0.2024,0.2029,0,0,0,0,0,0.1001,0.1007,0.1093,0.1082,0.1099,0.1283,0.1277,0.1313,0.1484,0.1531,0.1572,0.1628,0.1712,0.1734,0.1906,0.1911,0.1868,0.187,0.2041,0.2046,0.2051,0.2021,0,0,0,0,0,0,0.1004,0.1031,0.11,0.1112,0.116,0.1291,0.1317,0.1314,0.1501,0.1539,0.1473,0.1496,0.1704,0.1723,0.1738,0.1911,0.1864,0.1866,0.1868,0.2045,0.2049,0.2053,0,0,0,0,0,0,0.103,0.1039,0.1106,0.1195,0.1219,0.1297,0.132,0.1316,0.1502,0.1434,0.1458,0.1481,0.1707,0.1713,0.1726,0.171,0.1861,0.1863,0.1865,0.1866,0.2048,0.2052,0,0,0,0,0,0,0.1037,0.1045,0.1193,0.1211,0.1232,0.1372,0.1299,0.1384,0.1537,0.1423,0.1561,0.1572,0.1694,0.171,0.1717,0.1694,0.1706,0.1861,0.1863,0.1864,0.1865,0,0,0,0,0,0,0,0.1043,0.095,0.1036,0.1224,0.1243,0.122,0.1223,0.1226,0.154,0.1549,0.1559,0.1568,0.1847,0.185,0.1853,0.168,0,0,0.1861,0.1862,0,0,0,0,0,0,0,0,0.095,0.095,0.1036,0.1039,0.1041,0.1221,0.1223,0.1225,0.1541,0.1549,0.1557,0.1564,0.1848,0.185,0.1852,0,0,0,0,0,0,0,0,0,0,0,0,0,0,0,0.1036,0.1039,0,0.1221,0.1223,0.1225,0.1543,0.1549,0.1555,0.1561,0.1849,0.1851,0.1852,0,0,0,0,0,0,0,0,0,0,0,0,0,0,0,0,0,0,0,0,0,0,0,0,0,0,0,0,0,0,0,0,0,0,0,0,0,0,0,0,0,0,0,0,0,0,0,0,0,0,0,0,0,0,0,0,0,0,0,0,0,0,0,0,0,0,0,0,0]}],[{"header":{"parameterUnit":"kt","parameterCategory":2,"dx":1,"dy":1,"la1":30.253999710083008,"la2":30.299108505249023,"lo1":-89.0895004272461,"lo2":-89.04439544677734,"nx":28,"ny":28,"refTime":"2022-10-21T21:00:00:Z","depth":"4","parameterNumber":3,"parameterNumberName":"V-component_of_CURRENTS"},"data":[0.0534,0.0606,0.0665,0.0723,0.0777,0.0877,0.0951,0.0994,0.0932,0.0936,0.0776,0.0732,0.0446,0.0575,0.0161,0.0114,-0.0199,-0.018,-0.0184,-0.0716,-0.0737,-0.0755,-0.0809,0,0,0,0,0,0.0572,0.0613,0.0699,0.0775,0.0893,0.0935,0.1043,0.1057,0.1073,0.1036,0.0917,0.08,0.0501,0.0371,0.0188,0.0161,-0.0293,-0.0057,-0.0507,-0.0729,-0.0752,-0.0797,0,0,0,0,0,0,0.0595,0.0648,0.0672,0.0764,0.0864,0.0933,0.0991,0.092,0.0954,0.0863,0.0888,0.0665,0.0517,0.0227,0.0088,-0.0116,-0.0275,-0.0447,-0.0483,-0.0508,-0.0496,-0.0326,-0.0044,0,0,0,0,0,0.0545,0.0577,0.0592,0.0687,0.0726,0.0808,0.0768,0.0854,0.0725,0.0749,0.0661,0.048,0.0395,0.0042,-0.0099,-0.0334,-0.0755,-0.0687,-0.0706,-0.0995,-0.0901,-0.0869,-0.0879,-0.084,-0.0843,-0.0845,-0.0846,0,0.04,0.0463,0.0475,0.0509,0.043,0.0445,0.0472,0.0363,0.0371,0.0349,0.0394,0.0291,0.0121,-0.0042,-0.0365,-0.0639,-0.0713,-0.0742,-0.1049,-0.0939,-0.09,-0.0905,-0.0908,-0.0864,-0.0863,-0.0861,-0.086,0,0.0315,0.0202,0.0269,0.015,0.0147,0.018,0.0132,0.0169,0.0053,0.0125,0.0086,-0.0135,-0.0273,-0.0529,-0.0745,-0.0909,-0.1012,-0.0988,-0.1053,-0.1013,-0.0944,-0.094,-0.0895,-0.0888,-0.0882,-0.0878,-0.0873,0,0.0044,0.0068,-0.0107,-0.0054,-0.0005,-0.0149,-0.0097,-0.0193,-0.0273,-0.0212,-0.0502,-0.0462,-0.0856,-0.091,-0.1092,-0.1132,-0.1214,-0.124,-0.1195,-0.1403,-0.1397,-0.1388,-0.1379,-0.1481,-0.1482,-0.1483,-0.1484,0,-0.0061,-0.0203,-0.0217,-0.0223,-0.0283,-0.0333,-0.0408,-0.0505,-0.0485,-0.0635,-0.0576,-0.085,-0.0872,-0.1077,-0.1182,-0.1258,-0.1263,-0.1364,-0.1234,-0.1214,-0.1392,-0.1381,-0.1486,-0.1486,-0.1486,-0.1487,-0.1487,0,-0.0274,-0.0306,-0.0381,-0.0339,-0.0341,-0.0429,-0.0415,-0.053,-0.0651,-0.0695,-0.0856,-0.0925,-0.1101,-0.116,-0.1342,-0.1328,-0.1359,-0.1377,-0.1372,-0.1204,-0.1116,-0.1099,-0.1217,-0.1217,-0.1216,-0.1215,-0.1215,0,-0.0258,-0.0336,-0.039,-0.0444,-0.0409,-0.0478,-0.0575,-0.0672,-0.0745,-0.0791,-0.0944,-0.101,-0.1156,-0.1146,-0.1274,-0.1287,-0.134,-0.1343,-0.1282,-0.1278,-0.1076,-0.1154,-0.1371,-0.1206,-0.1207,-0.1208,-0.1208,0,-0.0144,-0.021,-0.0224,-0.0196,-0.0314,-0.0291,-0.0499,-0.0574,-0.0599,-0.0817,-0.0854,-0.1088,-0.1098,-0.1154,-0.1191,-0.1259,-0.1309,-0.1233,-0.1234,-0.1114,-0.1334,-0.1158,-0.1145,-0.1354,-0.1357,-0.136,-0.1202,0,-0.0049,-0.0082,-0.0118,-0.0187,-0.0215,-0.0282,-0.0344,-0.0444,-0.0538,-0.06,-0.0769,-0.086,-0.0964,-0.1032,-0.1036,-0.1182,-0.1105,-0.1133,-0.1059,-0.1171,-0.1079,-0.1084,-0.1004,-0.1003,-0.1002,-0.1001,0,0,0.009,0.0062,0.0103,0.0046,0.0029,-0.0016,-0.01,-0.0188,-0.0349,-0.0396,-0.0447,-0.0667,-0.0755,-0.0886,-0.0956,-0.0983,-0.0954,-0.0966,-0.1124,-0.1137,-0.115,-0.1069,-0.1075,-0.0999,-0.0999,-0.0999,-0.0998,0,0.0171,0.0204,0.0139,0.013,0.0066,0.0046,-0.0002,-0.0092,-0.019,-0.0334,-0.0418,-0.0538,-0.0679,-0.0761,-0.0806,-0.0949,-0.0915,-0.1001,-0.1052,-0.1112,-0.1127,-0.114,-0.1063,-0.107,-0.0996,-0.0996,-0.0996,0,0.0289,0.0295,0.027,0.026,0.0215,0.0149,0.015,0.0044,-0.0071,-0.0091,-0.0319,-0.0382,-0.0461,-0.0603,-0.0686,-0.065,-0.0834,-0.0813,-0.0821,-0.0829,-0.0888,-0.0906,-0.0923,-0.0704,-0.0703,-0.0701,0,0,0.0339,0.0319,0.0321,0.027,0.0263,0.0198,0.0159,0.0077,-0.0015,-0.0085,-0.0194,-0.0322,-0.0418,-0.0492,-0.0588,-0.0681,-0.0662,-0.0775,-0.0788,-0.08,-0.0813,-0.0875,-0.0894,-0.0697,-0.0697,-0.0696,0,0,0.0334,0.0341,0.0319,0.0293,0.0251,0.0213,0.0155,0.0098,-0.0031,-0.0109,-0.0173,-0.0208,-0.039,-0.0415,-0.0344,-0.0594,-0.0542,-0.0557,-0.0562,-0.0579,-0.0593,-0.0587,-0.0361,0,0,0,0,0,0.0378,0.0364,0.0346,0.0339,0.0288,0.0253,0.0241,0.0139,0.0059,0.0006,-0.0116,-0.0148,-0.0414,-0.035,-0.0368,-0.0469,-0.0635,-0.0646,-0.0656,-0.0688,-0.0707,-0.0722,0,0,0,0,0,0,0.0375,0.0369,0.0347,0.0321,0.0308,0.0254,0.0192,0.0165,0.0059,0.0034,-0.0118,-0.0147,-0.0187,-0.0344,-0.0359,-0.0456,-0.0356,-0.0639,-0.0649,-0.0657,-0.0695,-0.071,-0.0723,0,0,0,0,0,0.0373,0.0368,0.0302,0.0319,0.0308,0.0195,0.0186,0.0162,0.0043,-0.0017,-0.0053,-0.0048,-0.0179,-0.0206,-0.0353,-0.045,-0.0346,-0.0351,-0.0645,-0.0653,-0.0659,-0.0702,0,0,0,0,0,0,0.0371,0.0346,0.0298,0.0292,0.0266,0.019,0.0171,0.0161,-0.0009,-0.0039,0.006,0.0044,-0.0173,-0.0195,-0.0214,-0.0448,-0.0338,-0.0343,-0.0347,-0.0651,-0.0657,-0.0662,0,0,0,0,0,0,0.0348,0.0341,0.0295,0.0234,0.022,0.0186,0.0169,0.0132,-0.0013,0.0074,0.0058,0.0054,-0.0179,-0.0187,-0.0203,-0.0252,-0.0331,-0.0337,-0.034,-0.0343,-0.0656,-0.066,0,0,0,0,0,0,0.0344,0.0338,0.0234,0.0224,0.0211,0.0131,0.0146,0.0072,0.0012,0.0081,-0.0004,-0.0011,-0.017,-0.0187,-0.0193,-0.0234,-0.0247,-0.0332,-0.0335,-0.0338,-0.0339,0,0,0,0,0,0,0,0.034,0.0399,0.0339,0.0215,0.0203,0.0237,0.0235,0.0233,0.0011,0.0004,-0.0002,-0.0008,-0.0301,-0.0307,-0.0313,-0.022,0,0,-0.0331,-0.0334,0,0,0,0,0,0,0,0,0.04,0.0399,0.0339,0.0338,0.0337,0.0237,0.0235,0.0233,0.001,0.0004,-0.0001,-0.0006,-0.0303,-0.0307,-0.0312,0,0,0,0,0,0,0,0,0,0,0,0,0,0,0,0.0339,0.0338,0,0.0236,0.0235,0.0234,0.0009,0.0005,0.0,-0.0004,-0.0304,-0.0308,-0.0312,0,0,0,0,0,0,0,0,0,0,0,0,0,0,0,0,0,0,0,0,0,0,0,0,0,0,0,0,0,0,0,0,0,0,0,0,0,0,0,0,0,0,0,0,0,0,0,0,0,0,0,0,0,0,0,0,0,0,0,0,0,0,0,0,0,0,0,0,0]}]]]